Location: Del Amo
(33.8464°N, 118.2104°W)
Time: 20:00:18
(UTC+00:00)

Vanguard 1 - Pass Details

Date: 16 September 2024
Orbit: 648 x 3825 km, 34.3° (Epoch: 13 October)

Event Time Altitude Azimuth Distance (km) Brightness Sun altitude
Rises 02:57:11 0° 268° (W) 3,061 14.3 -12.9°
Reaches altitude 10° 03:01:09 10° 233° (SW) 2,034 12.3 -13.7°
Maximum altitude 03:02:40 12° 213° (SSW) 1,939 11.8 -14.0°
Drops below altitude 10° 03:04:13 10° 192° (SSW) 2,076 11.7 -14.4°
Enters shadow 03:07:39 - 162° (SSE) 2,974 12.2 -15.1°
